TAM8142 SBGR-SABE

Flight info

Callsign TAM8142
Flight time 2h 34m
Altitude 36000
Route UBSOD UZ38 UMDEX DCT CXS DCT UMRUD UN741 PAPIX
Aircraft A20N/M-SDE3FGHIJ2RWXY/LB1

Departure

Time 2026-05-05 12:34
Airport São Paulo/Guarulhos–Governor André Franco Montoro International Airport (SBGR)

Arrival

Time 2026-05-05 15:08
Airport Aeroparque Jorge Newbery (SABE)
Time Latitude Longitude Altitude Speed Heading
2026-05-05 12:04 -23.42808 -46.48280 2466 ft 0 kts 265°
2026-05-05 12:21 -23.42806 -46.48261 2466 ft 3 kts 265°
2026-05-05 12:22 -23.42804 -46.48232 2467 ft 3 kts 265°
2026-05-05 12:22 -23.42801 -46.48203 2467 ft 3 kts 265°
2026-05-05 12:22 -23.42799 -46.48175 2467 ft 3 kts 270°
2026-05-05 12:22 -23.42811 -46.48152 2466 ft 3 kts 326°
2026-05-05 12:23 -23.42826 -46.48147 2467 ft 0 kts 357°
2026-05-05 12:27 -23.42824 -46.48148 2466 ft 0 kts 332°
2026-05-05 12:27 -23.42823 -46.48152 2466 ft 1 kts 279°
2026-05-05 12:27 -23.42828 -46.48171 2466 ft 3 kts 232°
2026-05-05 12:27 -23.42860 -46.48182 2466 ft 4 kts 176°
2026-05-05 12:28 -23.42884 -46.48180 2466 ft 4 kts 175°
2026-05-05 12:28 -23.42916 -46.48178 2466 ft 5 kts 174°
2026-05-05 12:28 -23.42955 -46.48173 2466 ft 6 kts 173°
2026-05-05 12:28 -23.43000 -46.48168 2466 ft 7 kts 175°
2026-05-05 12:29 -23.43052 -46.48164 2466 ft 8 kts 177°
2026-05-05 12:29 -23.43110 -46.48156 2466 ft 8 kts 167°
2026-05-05 12:29 -23.43174 -46.48142 2466 ft 9 kts 182°
2026-05-05 12:29 -23.43218 -46.48193 2466 ft 10 kts 256°
2026-05-05 12:30 -23.43233 -46.48253 2466 ft 5 kts 254°
2026-05-05 12:30 -23.43233 -46.48254 2466 ft 0 kts 254°
2026-05-05 12:32 -23.43234 -46.48255 2466 ft 0 kts 254°
2026-05-05 12:32 -23.43240 -46.48277 2466 ft 5 kts 253°
2026-05-05 12:32 -23.43256 -46.48338 2466 ft 10 kts 253°
2026-05-05 12:32 -23.43311 -46.48391 2466 ft 11 kts 188°
2026-05-05 12:33 -23.43392 -46.48373 2466 ft 12 kts 163°
2026-05-05 12:33 -23.43417 -46.48304 2466 ft 12 kts 74°
2026-05-05 12:33 -23.43366 -46.48110 2466 ft 58 kts 73°
2026-05-05 12:33 -23.43183 -46.47437 2467 ft 125 kts 73°
2026-05-05 12:34 -23.42884 -46.46321 2524 ft 174 kts 73°
2026-05-05 12:34 -23.42533 -46.45023 3046 ft 183 kts 72°
2026-05-05 12:34 -23.42136 -46.43661 3556 ft 196 kts 72°
2026-05-05 12:34 -23.41709 -46.42202 3986 ft 213 kts 72°
2026-05-05 12:35 -23.41242 -46.40597 4395 ft 233 kts 72°
2026-05-05 12:35 -23.40736 -46.38841 4844 ft 253 kts 72°
2026-05-05 12:35 -23.40272 -46.36950 5409 ft 269 kts 83°
2026-05-05 12:35 -23.40390 -46.34926 6208 ft 275 kts 104°
2026-05-05 12:36 -23.40996 -46.32940 7055 ft 278 kts 109°
2026-05-05 12:36 -23.41661 -46.30974 7872 ft 282 kts 110°
2026-05-05 12:36 -23.42341 -46.28954 8479 ft 284 kts 110°
2026-05-05 12:36 -23.43150 -46.26991 8919 ft 285 kts 127°
2026-05-05 12:37 -23.44599 -46.25586 9211 ft 285 kts 153°
2026-05-05 12:37 -23.46532 -46.25045 9603 ft 291 kts 181°
2026-05-05 12:37 -23.48520 -46.25357 10495 ft 289 kts 192°
2026-05-05 12:37 -23.50506 -46.25788 11094 ft 299 kts 191°
2026-05-05 12:38 -23.52602 -46.26282 11462 ft 317 kts 198°
2026-05-05 12:38 -23.54583 -46.27459 11785 ft 334 kts 220°
2026-05-05 12:38 -23.56083 -46.29431 12112 ft 351 kts 241°
2026-05-05 12:38 -23.56876 -46.31997 12455 ft 367 kts 257°
2026-05-05 12:39 -23.57395 -46.34799 12748 ft 383 kts 258°
2026-05-05 12:39 -23.57948 -46.37717 12997 ft 398 kts 257°
2026-05-05 12:39 -23.58524 -46.40693 13418 ft 406 kts 257°
2026-05-05 12:39 -23.59115 -46.43700 13993 ft 409 kts 257°
2026-05-05 12:40 -23.59712 -46.46731 14556 ft 412 kts 257°
2026-05-05 12:40 -23.60311 -46.49760 15084 ft 415 kts 257°
2026-05-05 12:40 -23.60876 -46.52884 15607 ft 419 kts 259°
2026-05-05 12:40 -23.61349 -46.56019 16110 ft 422 kts 259°
2026-05-05 12:41 -23.61816 -46.59190 16615 ft 425 kts 259°
2026-05-05 12:41 -23.62334 -46.62356 17091 ft 428 kts 255°
2026-05-05 12:41 -23.63209 -46.65461 17550 ft 430 kts 248°
2026-05-05 12:41 -23.64479 -46.68445 18033 ft 432 kts 240°
2026-05-05 12:42 -23.66028 -46.71241 18512 ft 433 kts 237°
2026-05-05 12:42 -23.67652 -46.74009 18975 ft 436 kts 236°
2026-05-05 12:42 -23.69376 -46.76748 19410 ft 437 kts 231°
2026-05-05 12:42 -23.71427 -46.79174 19840 ft 439 kts 222°
2026-05-05 12:43 -23.73810 -46.81246 20264 ft 440 kts 213°
2026-05-05 12:43 -23.76427 -46.82994 20716 ft 442 kts 210°
2026-05-05 12:43 -23.79087 -46.84670 21130 ft 445 kts 209°
2026-05-05 12:43 -23.81781 -46.86352 21556 ft 447 kts 209°
2026-05-05 12:44 -23.84518 -46.88063 21969 ft 450 kts 210°
2026-05-05 12:44 -23.87213 -46.89755 22374 ft 453 kts 210°
2026-05-05 12:44 -23.89959 -46.91483 22784 ft 455 kts 210°
2026-05-05 12:44 -23.92711 -46.93218 23204 ft 458 kts 210°
2026-05-05 12:45 -23.95499 -46.94980 23645 ft 459 kts 210°
2026-05-05 12:45 -23.98097 -46.96623 24043 ft 460 kts 210°
2026-05-05 12:45 -24.01015 -46.98470 24468 ft 461 kts 210°
2026-05-05 12:45 -24.03804 -47.00237 24988 ft 459 kts 210°
2026-05-05 12:46 -24.06553 -47.01978 25548 ft 456 kts 211°
2026-05-05 12:46 -24.09293 -47.03714 26113 ft 453 kts 211°
2026-05-05 12:46 -24.11991 -47.05421 26636 ft 451 kts 211°
2026-05-05 12:46 -24.14701 -47.07130 27148 ft 449 kts 211°
2026-05-05 12:47 -24.17426 -47.08852 27671 ft 446 kts 211°
2026-05-05 12:47 -24.20103 -47.10549 28177 ft 444 kts 211°
2026-05-05 12:47 -24.22742 -47.12225 28669 ft 441 kts 212°
2026-05-05 12:47 -24.25383 -47.13908 29143 ft 438 kts 212°
2026-05-05 12:48 -24.27984 -47.15659 29566 ft 436 kts 213°
2026-05-05 12:48 -24.30535 -47.17423 29966 ft 434 kts 214°
2026-05-05 12:48 -24.33085 -47.19195 30363 ft 433 kts 214°
2026-05-05 12:48 -24.35605 -47.20949 30753 ft 430 kts 214°
2026-05-05 12:49 -24.38141 -47.22713 31113 ft 429 kts 214°
2026-05-05 12:49 -24.40642 -47.24453 31449 ft 428 kts 214°
2026-05-05 12:49 -24.43167 -47.26210 31816 ft 426 kts 214°
2026-05-05 12:49 -24.45665 -47.27948 32157 ft 424 kts 214°
2026-05-05 12:50 -24.48143 -47.29675 32477 ft 423 kts 214°
2026-05-05 12:50 -24.50622 -47.31401 32793 ft 421 kts 214°
2026-05-05 12:50 -24.53083 -47.33116 33112 ft 420 kts 214°
2026-05-05 12:50 -24.55333 -47.34685 33411 ft 418 kts 214°
2026-05-05 12:51 -24.57795 -47.36401 33724 ft 416 kts 214°
2026-05-05 12:51 -24.60203 -47.38081 33998 ft 415 kts 214°
2026-05-05 12:51 -24.62650 -47.39789 34276 ft 414 kts 214°
2026-05-05 12:51 -24.65095 -47.41495 34539 ft 413 kts 214°
2026-05-05 12:52 -24.67517 -47.43188 34759 ft 413 kts 214°
2026-05-05 12:52 -24.69933 -47.44878 34952 ft 413 kts 214°
2026-05-05 12:52 -24.72362 -47.46576 35135 ft 413 kts 214°
2026-05-05 12:52 -24.74775 -47.48265 35323 ft 413 kts 214°
2026-05-05 12:53 -24.77213 -47.49971 35489 ft 414 kts 214°
2026-05-05 12:53 -24.79631 -47.51665 35655 ft 413 kts 214°
2026-05-05 12:53 -24.82072 -47.53376 35810 ft 414 kts 214°
2026-05-05 12:53 -24.84470 -47.55057 35957 ft 414 kts 214°
2026-05-05 12:54 -24.89334 -47.58470 36144 ft 415 kts 214°
2026-05-05 12:54 -24.91754 -47.60169 36150 ft 415 kts 214°
2026-05-05 12:55 -24.96644 -47.63606 36153 ft 415 kts 214°
2026-05-05 12:55 -25.01500 -47.67033 36149 ft 416 kts 215°
2026-05-05 12:56 -25.06360 -47.70477 36150 ft 416 kts 215°
2026-05-05 12:56 -25.11249 -47.73928 36151 ft 415 kts 214°
2026-05-05 12:57 -25.16116 -47.77340 36153 ft 415 kts 214°
2026-05-05 12:57 -25.20981 -47.80765 36152 ft 414 kts 214°
2026-05-05 12:58 -25.25843 -47.84197 36150 ft 414 kts 215°
2026-05-05 12:58 -25.30683 -47.87620 36147 ft 414 kts 215°
2026-05-05 12:59 -25.35533 -47.91058 36150 ft 414 kts 214°
2026-05-05 12:59 -25.40387 -47.94500 36151 ft 414 kts 215°
2026-05-05 13:00 -25.47661 -47.99663 36149 ft 414 kts 214°
2026-05-05 13:01 -25.57391 -48.06582 36149 ft 415 kts 215°
2026-05-05 13:01 -25.62232 -48.10028 36157 ft 415 kts 215°
2026-05-05 13:02 -25.67083 -48.13482 36150 ft 414 kts 215°
2026-05-05 13:02 -25.71949 -48.16946 36152 ft 414 kts 215°
2026-05-05 13:03 -25.76770 -48.20381 36157 ft 414 kts 215°
2026-05-05 13:03 -25.81622 -48.23842 36155 ft 414 kts 215°
2026-05-05 13:04 -25.86459 -48.27293 36155 ft 415 kts 215°
2026-05-05 13:04 -25.91300 -48.30752 36153 ft 415 kts 215°
2026-05-05 13:05 -25.96180 -48.34242 36155 ft 416 kts 215°
2026-05-05 13:05 -26.01023 -48.37709 36161 ft 416 kts 215°
2026-05-05 13:06 -26.05904 -48.41207 36162 ft 415 kts 215°
2026-05-05 13:06 -26.10762 -48.44690 36164 ft 415 kts 215°
2026-05-05 13:07 -26.15616 -48.48156 36159 ft 415 kts 215°
2026-05-05 13:07 -26.20452 -48.51621 36161 ft 415 kts 215°
2026-05-05 13:08 -26.25309 -48.55117 36162 ft 414 kts 215°
2026-05-05 13:08 -26.30127 -48.58585 36160 ft 414 kts 215°
2026-05-05 13:09 -26.34962 -48.62072 36157 ft 415 kts 215°
2026-05-05 13:09 -26.39804 -48.65573 36156 ft 415 kts 216°
2026-05-05 13:10 -26.44653 -48.69103 36156 ft 415 kts 216°
2026-05-05 13:10 -26.49477 -48.72627 36154 ft 415 kts 216°
2026-05-05 13:11 -26.54296 -48.76186 36158 ft 415 kts 216°
2026-05-05 13:11 -26.59079 -48.79715 36160 ft 415 kts 216°
2026-05-05 13:12 -26.63895 -48.83270 36165 ft 415 kts 216°
2026-05-05 13:12 -26.68738 -48.86837 36168 ft 415 kts 216°
2026-05-05 13:13 -26.73540 -48.90346 36173 ft 414 kts 216°
2026-05-05 13:13 -26.78368 -48.93871 36175 ft 415 kts 216°
2026-05-05 13:14 -26.83210 -48.97413 36178 ft 414 kts 216°
2026-05-05 13:14 -26.88022 -49.00936 36183 ft 414 kts 216°
2026-05-05 13:15 -26.92839 -49.04467 36186 ft 415 kts 216°
2026-05-05 13:15 -26.97682 -49.08022 36184 ft 414 kts 216°
2026-05-05 13:16 -27.02502 -49.11560 36184 ft 414 kts 216°
2026-05-05 13:16 -27.07325 -49.15109 36184 ft 414 kts 216°
2026-05-05 13:17 -27.12142 -49.18646 36181 ft 414 kts 216°
2026-05-05 13:17 -27.16955 -49.22171 36183 ft 415 kts 216°
2026-05-05 13:18 -27.21779 -49.25720 36184 ft 414 kts 216°
2026-05-05 13:18 -27.26579 -49.29262 36189 ft 414 kts 216°
2026-05-05 13:19 -27.31383 -49.32811 36191 ft 414 kts 216°
2026-05-05 13:19 -27.36198 -49.36373 36201 ft 413 kts 216°
2026-05-05 13:20 -27.40977 -49.39914 36213 ft 413 kts 216°
2026-05-05 13:20 -27.45787 -49.43481 36214 ft 414 kts 216°
2026-05-05 13:21 -27.50608 -49.47064 36221 ft 413 kts 216°
2026-05-05 13:21 -27.55314 -49.50758 36229 ft 412 kts 220°
2026-05-05 13:22 -27.59668 -49.54884 36235 ft 411 kts 223°
2026-05-05 13:22 -27.63954 -49.59175 36242 ft 411 kts 224°
2026-05-05 13:23 -27.68200 -49.63437 36243 ft 411 kts 224°
2026-05-05 13:23 -27.72464 -49.67738 36255 ft 410 kts 224°
2026-05-05 13:24 -27.76704 -49.72029 36262 ft 410 kts 224°
2026-05-05 13:24 -27.80939 -49.76306 36270 ft 410 kts 224°
2026-05-05 13:25 -27.85193 -49.80604 36276 ft 410 kts 224°
2026-05-05 13:25 -27.89455 -49.84910 36279 ft 410 kts 224°
2026-05-05 13:26 -27.93701 -49.89201 36287 ft 410 kts 224°
2026-05-05 13:26 -27.97921 -49.93474 36301 ft 410 kts 224°
2026-05-05 13:27 -28.02184 -49.97792 36312 ft 411 kts 224°
2026-05-05 13:27 -28.06427 -50.02095 36308 ft 411 kts 224°
2026-05-05 13:28 -28.10669 -50.06403 36312 ft 411 kts 224°
2026-05-05 13:28 -28.14964 -50.10738 36304 ft 411 kts 224°
2026-05-05 13:29 -28.19212 -50.15043 36301 ft 410 kts 224°
2026-05-05 13:29 -28.23458 -50.19360 36293 ft 410 kts 224°
2026-05-05 13:30 -28.27663 -50.23646 36287 ft 409 kts 224°
2026-05-05 13:30 -28.31904 -50.27974 36281 ft 408 kts 224°
2026-05-05 13:31 -28.36102 -50.32266 36278 ft 409 kts 224°
2026-05-05 13:31 -28.40319 -50.36579 36270 ft 409 kts 224°
2026-05-05 13:32 -28.44537 -50.40902 36260 ft 409 kts 224°
2026-05-05 13:32 -28.48781 -50.45254 36258 ft 409 kts 224°
2026-05-05 13:33 -28.52989 -50.49575 36264 ft 410 kts 225°
2026-05-05 13:33 -28.57209 -50.53914 36258 ft 410 kts 224°
2026-05-05 13:34 -28.61431 -50.58257 36249 ft 410 kts 224°
2026-05-05 13:34 -28.64937 -50.61870 36249 ft 409 kts 224°
2026-05-05 13:35 -28.69158 -50.66225 36241 ft 409 kts 225°
2026-05-05 13:35 -28.73333 -50.70562 36230 ft 408 kts 225°
2026-05-05 13:36 -28.77533 -50.74916 36222 ft 409 kts 225°
2026-05-05 13:36 -28.81762 -50.79298 36219 ft 410 kts 225°
2026-05-05 13:37 -28.85969 -50.83656 36223 ft 409 kts 225°
2026-05-05 13:37 -28.90155 -50.87997 36217 ft 409 kts 225°
2026-05-05 13:38 -28.94363 -50.92366 36221 ft 409 kts 225°
2026-05-05 13:38 -28.98576 -50.96746 36224 ft 409 kts 225°
2026-05-05 13:39 -29.02779 -51.01118 36221 ft 408 kts 225°
2026-05-05 13:39 -29.06967 -51.05477 36216 ft 408 kts 225°
2026-05-05 13:40 -29.11155 -51.09837 36208 ft 408 kts 225°
2026-05-05 13:40 -29.15371 -51.14214 36199 ft 409 kts 225°
2026-05-05 13:41 -29.19430 -51.18748 36191 ft 408 kts 230°
2026-05-05 13:41 -29.23074 -51.23689 36186 ft 406 kts 234°
2026-05-05 13:42 -29.26533 -51.28783 36177 ft 406 kts 234°
2026-05-05 13:42 -29.29980 -51.33882 36176 ft 405 kts 234°
2026-05-05 13:43 -29.33403 -51.38956 36165 ft 404 kts 234°
2026-05-05 13:43 -29.36837 -51.44050 36159 ft 405 kts 234°
2026-05-05 13:44 -29.40280 -51.49167 36155 ft 405 kts 234°
2026-05-05 13:44 -29.43695 -51.54247 36141 ft 404 kts 234°
2026-05-05 13:45 -29.47129 -51.59364 36126 ft 405 kts 234°
2026-05-05 13:45 -29.50567 -51.64491 36116 ft 404 kts 234°
2026-05-05 13:46 -29.53968 -51.69594 36111 ft 404 kts 234°
2026-05-05 13:46 -29.57389 -51.74730 36105 ft 404 kts 234°
2026-05-05 13:47 -29.60774 -51.79806 36096 ft 404 kts 234°
2026-05-05 13:47 -29.64191 -51.84932 36085 ft 403 kts 234°
2026-05-05 13:48 -29.67593 -51.90041 36084 ft 404 kts 234°
2026-05-05 13:48 -29.70990 -51.95145 36080 ft 403 kts 234°
2026-05-05 13:49 -29.74389 -52.00262 36073 ft 403 kts 234°
2026-05-05 13:49 -29.77790 -52.05384 36076 ft 403 kts 234°
2026-05-05 13:50 -29.81196 -52.10525 36072 ft 403 kts 234°
2026-05-05 13:50 -29.84591 -52.15651 36068 ft 402 kts 235°
2026-05-05 13:51 -29.87953 -52.20738 36069 ft 403 kts 234°
2026-05-05 13:51 -29.91360 -52.25897 36067 ft 403 kts 234°
2026-05-05 13:52 -29.94730 -52.31006 36066 ft 402 kts 235°
2026-05-05 13:52 -29.98117 -52.36145 36065 ft 401 kts 235°
2026-05-05 13:53 -30.01468 -52.41239 36070 ft 401 kts 235°
2026-05-05 13:53 -30.04844 -52.46378 36067 ft 401 kts 235°
2026-05-05 13:54 -30.08210 -52.51506 36067 ft 401 kts 235°
2026-05-05 13:54 -30.11570 -52.56622 36068 ft 402 kts 235°
2026-05-05 13:55 -30.14961 -52.61762 36061 ft 401 kts 235°
2026-05-05 13:55 -30.18122 -52.66578 36065 ft 400 kts 235°
2026-05-05 13:56 -30.21442 -52.71679 36060 ft 400 kts 236°
2026-05-05 13:56 -30.24781 -52.76812 36060 ft 400 kts 236°
2026-05-05 13:57 -30.28140 -52.81974 36065 ft 400 kts 236°
2026-05-05 13:57 -30.31463 -52.87086 36068 ft 400 kts 236°
2026-05-05 13:58 -30.34796 -52.92215 36068 ft 400 kts 236°
2026-05-05 13:58 -30.38143 -52.97374 36072 ft 400 kts 236°
2026-05-05 13:59 -30.42991 -53.04860 36070 ft 399 kts 236°
2026-05-05 14:00 -30.47404 -53.11687 36069 ft 398 kts 236°
2026-05-05 14:00 -30.51272 -53.17678 36067 ft 397 kts 236°
2026-05-05 14:01 -30.54553 -53.22767 36064 ft 397 kts 236°
2026-05-05 14:01 -30.57853 -53.27894 36062 ft 397 kts 236°
2026-05-05 14:02 -30.61155 -53.33028 36068 ft 398 kts 236°
2026-05-05 14:02 -30.64453 -53.38166 36069 ft 398 kts 236°
2026-05-05 14:03 -30.67753 -53.43309 36074 ft 398 kts 236°
2026-05-05 14:03 -30.71052 -53.48461 36072 ft 398 kts 236°
2026-05-05 14:04 -30.74349 -53.53614 36076 ft 397 kts 236°
2026-05-05 14:04 -30.77633 -53.58756 36072 ft 397 kts 236°
2026-05-05 14:05 -30.80912 -53.63897 36073 ft 397 kts 236°
2026-05-05 14:05 -30.84202 -53.69077 36073 ft 396 kts 237°
2026-05-05 14:06 -30.87466 -53.74226 36072 ft 397 kts 237°
2026-05-05 14:06 -30.90748 -53.79398 36072 ft 397 kts 237°
2026-05-05 14:07 -30.94014 -53.84549 36076 ft 397 kts 237°
2026-05-05 14:07 -30.97277 -53.89700 36080 ft 396 kts 237°
2026-05-05 14:08 -31.00536 -53.94848 36080 ft 396 kts 237°
2026-05-05 14:08 -31.03794 -54.00001 36078 ft 396 kts 237°
2026-05-05 14:09 -31.06937 -54.04979 36080 ft 397 kts 237°
2026-05-05 14:09 -31.10200 -54.10153 36077 ft 397 kts 237°
2026-05-05 14:10 -31.13496 -54.15345 36076 ft 397 kts 237°
2026-05-05 14:10 -31.16750 -54.20491 36073 ft 397 kts 237°
2026-05-05 14:11 -31.20018 -54.25684 36070 ft 396 kts 237°
2026-05-05 14:11 -31.23263 -54.30856 36066 ft 396 kts 237°
2026-05-05 14:12 -31.26507 -54.36033 36063 ft 396 kts 237°
2026-05-05 14:12 -31.29745 -54.41208 36060 ft 396 kts 237°
2026-05-05 14:13 -31.32997 -54.46415 36059 ft 395 kts 237°
2026-05-05 14:13 -31.36219 -54.51581 36057 ft 395 kts 237°
2026-05-05 14:14 -31.39440 -54.56755 36055 ft 396 kts 237°
2026-05-05 14:14 -31.42767 -54.61912 36054 ft 396 kts 234°
2026-05-05 14:15 -31.46456 -54.66704 36055 ft 399 kts 230°
2026-05-05 14:15 -31.50470 -54.71172 36051 ft 400 kts 228°
2026-05-05 14:16 -31.54552 -54.75589 36048 ft 400 kts 228°
2026-05-05 14:16 -31.58631 -54.79998 36049 ft 400 kts 227°
2026-05-05 14:17 -31.62717 -54.84412 36056 ft 400 kts 228°
2026-05-05 14:17 -31.66815 -54.88843 36056 ft 400 kts 228°
2026-05-05 14:18 -31.70888 -54.93252 36056 ft 400 kts 228°
2026-05-05 14:18 -31.74983 -54.97688 36057 ft 400 kts 228°
2026-05-05 14:19 -31.79058 -55.02109 36058 ft 399 kts 228°
2026-05-05 14:19 -31.83141 -55.06545 36059 ft 399 kts 228°
2026-05-05 14:20 -31.87203 -55.10963 36057 ft 399 kts 228°
2026-05-05 14:20 -31.91272 -55.15392 36054 ft 399 kts 228°
2026-05-05 14:21 -31.95337 -55.19825 36056 ft 399 kts 228°
2026-05-05 14:21 -31.99373 -55.24232 36053 ft 398 kts 228°
2026-05-05 14:22 -32.03438 -55.28675 36051 ft 398 kts 228°
2026-05-05 14:22 -32.07488 -55.33107 36051 ft 398 kts 228°
2026-05-05 14:23 -32.11554 -55.37557 36046 ft 399 kts 228°
2026-05-05 14:23 -32.15630 -55.41997 36047 ft 398 kts 228°
2026-05-05 14:24 -32.19685 -55.46436 36045 ft 398 kts 228°
2026-05-05 14:24 -32.23727 -55.50874 36038 ft 398 kts 228°
2026-05-05 14:25 -32.27756 -55.55310 36037 ft 398 kts 228°
2026-05-05 14:25 -32.31812 -55.59780 36036 ft 398 kts 229°
2026-05-05 14:26 -32.35850 -55.64239 36033 ft 398 kts 229°
2026-05-05 14:26 -32.39883 -55.68718 36037 ft 398 kts 229°
2026-05-05 14:27 -32.43903 -55.73188 36033 ft 398 kts 229°
2026-05-05 14:27 -32.47926 -55.77655 36033 ft 398 kts 229°
2026-05-05 14:28 -32.51968 -55.82147 36032 ft 398 kts 229°
2026-05-05 14:28 -32.55992 -55.86619 36033 ft 398 kts 229°
2026-05-05 14:29 -32.60036 -55.91119 36030 ft 398 kts 229°
2026-05-05 14:29 -32.64061 -55.95604 36033 ft 398 kts 229°
2026-05-05 14:30 -32.68006 -56.00005 36032 ft 398 kts 229°
2026-05-05 14:30 -32.72014 -56.04481 36029 ft 398 kts 229°
2026-05-05 14:31 -32.76030 -56.08974 36027 ft 397 kts 229°
2026-05-05 14:31 -32.80047 -56.13473 36026 ft 397 kts 229°
2026-05-05 14:32 -32.84060 -56.17973 36030 ft 397 kts 229°
2026-05-05 14:32 -32.88050 -56.22452 36032 ft 397 kts 229°
2026-05-05 14:33 -32.92079 -56.26979 36029 ft 398 kts 229°
2026-05-05 14:33 -32.96093 -56.31498 36029 ft 398 kts 230°
2026-05-05 14:34 -33.00105 -56.36030 36028 ft 397 kts 230°
2026-05-05 14:34 -33.04092 -56.40554 36029 ft 398 kts 230°
2026-05-05 14:35 -33.08097 -56.45103 36025 ft 399 kts 229°
2026-05-05 14:35 -33.12131 -56.49674 36027 ft 399 kts 229°
2026-05-05 14:36 -33.16131 -56.54201 36021 ft 399 kts 230°
2026-05-05 14:36 -33.20147 -56.58769 36022 ft 400 kts 229°
2026-05-05 14:37 -33.24158 -56.63335 36025 ft 399 kts 229°
2026-05-05 14:37 -33.28188 -56.67942 36023 ft 398 kts 230°
2026-05-05 14:38 -33.32157 -56.72499 36021 ft 399 kts 230°
2026-05-05 14:38 -33.36172 -56.77103 36019 ft 399 kts 230°
2026-05-05 14:39 -33.40038 -56.81538 36019 ft 399 kts 230°
2026-05-05 14:39 -33.44032 -56.86123 36016 ft 400 kts 230°
2026-05-05 14:40 -33.48072 -56.90768 36013 ft 400 kts 230°
2026-05-05 14:40 -33.52068 -56.95367 36012 ft 400 kts 230°
2026-05-05 14:41 -33.56065 -56.99970 36011 ft 400 kts 230°
2026-05-05 14:41 -33.60069 -57.04589 36012 ft 400 kts 230°
2026-05-05 14:42 -33.64063 -57.09204 36011 ft 399 kts 230°
2026-05-05 14:42 -33.68078 -57.13851 36013 ft 399 kts 230°
2026-05-05 14:43 -33.72065 -57.18467 36012 ft 399 kts 230°
2026-05-05 14:43 -33.76051 -57.23089 36011 ft 399 kts 230°
2026-05-05 14:44 -33.80047 -57.27732 36013 ft 400 kts 230°
2026-05-05 14:44 -33.84020 -57.32352 36014 ft 400 kts 230°
2026-05-05 14:45 -33.88007 -57.36997 36009 ft 399 kts 230°
2026-05-05 14:45 -33.91991 -57.41647 36015 ft 399 kts 230°
2026-05-05 14:46 -33.95970 -57.46293 36014 ft 400 kts 230°
2026-05-05 14:46 -33.99975 -57.50979 36014 ft 400 kts 230°
2026-05-05 14:47 -34.03942 -57.55629 35829 ft 402 kts 230°
2026-05-05 14:47 -34.05952 -57.57986 35011 ft 404 kts 230°
2026-05-05 14:47 -34.07958 -57.60339 34257 ft 403 kts 230°
2026-05-05 14:48 -34.09959 -57.62688 33523 ft 402 kts 230°
2026-05-05 14:48 -34.11956 -57.65023 32796 ft 402 kts 230°
2026-05-05 14:48 -34.13959 -57.67370 31981 ft 404 kts 230°
2026-05-05 14:48 -34.15987 -57.69756 31106 ft 408 kts 230°
2026-05-05 14:49 -34.18008 -57.72137 30235 ft 411 kts 230°
2026-05-05 14:49 -34.20060 -57.74555 29348 ft 415 kts 230°
2026-05-05 14:49 -34.22106 -57.76971 28422 ft 419 kts 230°
2026-05-05 14:49 -34.24190 -57.79431 27476 ft 423 kts 230°
2026-05-05 14:50 -34.26310 -57.81932 26527 ft 427 kts 230°
2026-05-05 14:50 -34.28423 -57.84427 25590 ft 430 kts 230°
2026-05-05 14:50 -34.30554 -57.86947 24612 ft 433 kts 230°
2026-05-05 14:50 -34.32719 -57.89508 23603 ft 436 kts 230°
2026-05-05 14:51 -34.34843 -57.92020 22989 ft 431 kts 230°
2026-05-05 14:51 -34.36968 -57.94536 22379 ft 426 kts 230°
2026-05-05 14:51 -34.39040 -57.97044 21750 ft 420 kts 232°
2026-05-05 14:51 -34.40739 -57.99597 21139 ft 412 kts 239°
2026-05-05 14:52 -34.42232 -58.02533 20490 ft 406 kts 246°
2026-05-05 14:52 -34.43387 -58.05590 19833 ft 401 kts 251°
2026-05-05 14:52 -34.44407 -58.08702 19162 ft 399 kts 252°
2026-05-05 14:52 -34.45399 -58.11807 18489 ft 398 kts 252°
2026-05-05 14:53 -34.46402 -58.14954 17815 ft 397 kts 252°
2026-05-05 14:53 -34.47387 -58.18042 17170 ft 395 kts 252°
2026-05-05 14:53 -34.48367 -58.21119 16534 ft 393 kts 252°
2026-05-05 14:53 -34.49349 -58.24199 15885 ft 391 kts 251°
2026-05-05 14:54 -34.50326 -58.27259 15251 ft 389 kts 251°
2026-05-05 14:54 -34.51287 -58.30269 14631 ft 387 kts 251°
2026-05-05 14:54 -34.52253 -58.33301 13991 ft 385 kts 251°
2026-05-05 14:54 -34.53208 -58.36298 13372 ft 383 kts 251°
2026-05-05 14:55 -34.54171 -58.39319 12755 ft 381 kts 251°
2026-05-05 14:55 -34.55116 -58.42290 12145 ft 379 kts 251°
2026-05-05 14:55 -34.56059 -58.45258 11537 ft 376 kts 251°
2026-05-05 14:55 -34.56978 -58.48149 11141 ft 366 kts 251°
2026-05-05 14:56 -34.57884 -58.51000 10915 ft 351 kts 251°
2026-05-05 14:56 -34.58743 -58.53708 10713 ft 337 kts 251°
2026-05-05 14:56 -34.59559 -58.56285 10541 ft 324 kts 251°
2026-05-05 14:56 -34.60350 -58.58788 10390 ft 310 kts 251°
2026-05-05 14:57 -34.60804 -58.61272 10238 ft 295 kts 269°
2026-05-05 14:57 -34.60542 -58.63651 10126 ft 281 kts 286°
2026-05-05 14:57 -34.59942 -58.65847 10047 ft 267 kts 289°
2026-05-05 14:57 -34.59344 -58.67971 9742 ft 266 kts 289°
2026-05-05 14:58 -34.58753 -58.70083 9415 ft 264 kts 288°
2026-05-05 14:58 -34.58167 -58.72191 9096 ft 262 kts 289°
2026-05-05 14:58 -34.57595 -58.74253 8790 ft 260 kts 289°
2026-05-05 14:58 -34.56956 -58.76285 8457 ft 259 kts 300°
2026-05-05 14:59 -34.55720 -58.77869 8120 ft 260 kts 325°
2026-05-05 14:59 -34.54028 -58.78631 7791 ft 265 kts 349°
2026-05-05 14:59 -34.52185 -58.78560 7479 ft 267 kts
2026-05-05 14:59 -34.50329 -58.78332 7165 ft 265 kts
2026-05-05 15:00 -34.48492 -58.78111 6853 ft 263 kts
2026-05-05 15:00 -34.47286 -58.77967 6649 ft 261 kts
2026-05-05 15:00 -34.44882 -58.77682 6243 ft 258 kts
2026-05-05 15:00 -34.43108 -58.77472 5940 ft 256 kts
2026-05-05 15:01 -34.41336 -58.77263 5642 ft 254 kts
2026-05-05 15:01 -34.39605 -58.77060 5355 ft 252 kts
2026-05-05 15:01 -34.37880 -58.76688 5066 ft 254 kts 20°
2026-05-05 15:01 -34.36552 -58.75320 5012 ft 250 kts 55°
2026-05-05 15:02 -34.36048 -58.73369 4889 ft 248 kts 88°
2026-05-05 15:02 -34.36467 -58.71386 4645 ft 246 kts 123°
2026-05-05 15:02 -34.37628 -58.69892 4460 ft 240 kts 143°
2026-05-05 15:02 -34.38949 -58.68671 4285 ft 239 kts 146°
2026-05-05 15:03 -34.40298 -58.67495 4115 ft 239 kts 146°
2026-05-05 15:03 -34.41630 -58.66314 3944 ft 238 kts 142°
2026-05-05 15:03 -34.42807 -58.64916 3774 ft 238 kts 131°
2026-05-05 15:03 -34.43822 -58.63330 3599 ft 232 kts 126°
2026-05-05 15:04 -34.44722 -58.61762 3429 ft 226 kts 124°
2026-05-05 15:04 -34.45592 -58.60183 3258 ft 220 kts 124°
2026-05-05 15:04 -34.46411 -58.58686 3145 ft 210 kts 124°
2026-05-05 15:04 -34.47221 -58.57217 2873 ft 206 kts 124°
2026-05-05 15:05 -34.48789 -58.54388 2298 ft 201 kts 124°
2026-05-05 15:05 -34.49568 -58.52988 2023 ft 197 kts 123°
2026-05-05 15:05 -34.50326 -58.51625 1762 ft 193 kts 123°
2026-05-05 15:06 -34.51045 -58.50335 1534 ft 178 kts 123°
2026-05-05 15:06 -34.51712 -58.49137 1299 ft 163 kts 123°
2026-05-05 15:06 -34.52320 -58.48045 1080 ft 150 kts 123°
2026-05-05 15:06 -34.52877 -58.47046 885 ft 140 kts 123°
2026-05-05 15:07 -34.53422 -58.46064 717 ft 139 kts 123°
2026-05-05 15:07 -34.53966 -58.45090 541 ft 138 kts 123°
2026-05-05 15:07 -34.54501 -58.44128 358 ft 138 kts 123°
2026-05-05 15:07 -34.55036 -58.43171 175 ft 137 kts 123°
2026-05-05 15:08 -34.55566 -58.42224 33 ft 135 kts 123°
2026-05-05 15:08 -34.56076 -58.41293 27 ft 116 kts 126°
2026-05-05 15:08 -34.56350 -58.40808 27 ft 24 kts 126°
2026-05-05 15:08 -34.56392 -58.40676 27 ft 12 kts 55°
2026-05-05 15:09 -34.56328 -58.40689 27 ft 9 kts 319°
2026-05-05 15:09 -34.56285 -58.40737 27 ft 7 kts 317°
2026-05-05 15:09 -34.56246 -58.40781 27 ft 8 kts 317°
2026-05-05 15:09 -34.56200 -58.40834 27 ft 9 kts 317°
2026-05-05 15:10 -34.56163 -58.40905 27 ft 10 kts 298°
2026-05-05 15:10 -34.56119 -58.40985 27 ft 11 kts 306°
2026-05-05 15:10 -34.56067 -58.41060 27 ft 10 kts 332°
2026-05-05 15:10 -34.55993 -58.41065 27 ft 10 kts 340°
2026-05-05 15:11 -34.55935 -58.41127 27 ft 11 kts 309°
2026-05-05 15:11 -34.55886 -58.41202 27 ft 8 kts 309°
2026-05-05 15:11 -34.55867 -58.41217 27 ft 2 kts 12°
2026-05-05 15:11 -34.55850 -58.41202 27 ft 2 kts 42°
2026-05-05 15:12 -34.55840 -58.41192 27 ft 1 kts 40°
2026-05-05 15:12 -34.55838 -58.41191 27 ft 0 kts 40°